Weather History for Concord, NH

Change the Weather History Date:

Friday, June 28, 2013

  Actual Average Record
Temperature  
Mean Temperature 65 °F 68 °F  
Max Temperature 73 °F 81 °F 100 °F (1901)
Min Temperature 56 °F 56 °F 38 °F (1970)
Degree Days  
Heating Degree Days 0 1  
Month to date heating degree days 72 82  
Since 1 June heating degree days 72 82  
Since 1 July heating degree days 6845 7232  
Cooling Degree Days 0 4  
Month to date cooling degree days 88 74  
Year to date cooling degree days 109 92  
Since 1 June cooling degree days 88 74  
Growing Degree Days 14 (Base 50)    
Moisture  
Dew Point 62 °F    
Average Humidity 97    
Maximum Humidity 100    
Minimum Humidity 93    
Precipitation  
Precipitation 0.71 in 0.11 in 1.62 in (1968)
Month to date precipitation 6.73 3.48  
Year to date precipitation 19.49 19.14  
Snow  
Snow 0.00 in 0.00 in 0.00 in (2002)
Month to date snowfall 0.0 0.0  
Since 1 June snowfall 0.0 0.0  
Since 1 July snowfall 83.4 61.4  
Snow Depth 0.00 in    
Sea Level Pressure  
Sea Level Pressure 29.57 in    
Wind  
Wind Speed 4 mph (NE)    
Max Wind Speed 15 mph    
Max Gust Speed 18 mph    
Visibility 8 miles    
Events Fog , Rain , Thunderstorm    
T = Trace of Precipitation, MM = Missing Value Source: NWS Daily Summary

Daily Weather History Graph

Daily Weather History Graph

Search for Another Location

Airport:

Trip Planner

Search our weather history database for the weather conditions in past years. The results will help you decide how hot, cold, wet, or windy it might be!

Date:

Astronomy

Jun. 28, 2013 Rise Set
Actual Time 5:08 AM EDT 8:29 PM EDT
Civil Twilight 4:33 AM EDT 9:05 PM EDT
Nautical Twilight 3:46 AM EDT 9:51 PM EDT
Astronomical Twilight 2:49 AM EDT 10:48 PM EDT
Moon 11:45 PM EDT (6/28) 11:23 AM EDT (6/28)
Length of Visible Light 16h 32m
Length of Day
15h 21m
Waning Gibbous, 66% of the Moon is Illuminated
Jun 28
Waning Gibbous
Jun 30
Last Quarter
Jul 8
New
Jul 15
First Quarter
Jul 22
Full

Hourly Weather History & Observations

Time (EDT) Temp. Dew Point Humidity Pressure Visibility Wind Dir Wind Speed Gust Speed Precip Events Conditions
12:51 AM 61.0 °F 60.1 °F 97% 29.77 in 5.0 mi ESE 3.5 mph - 0.03 in   Overcast
1:51 AM 60.1 °F 59.0 °F 96% 29.75 in 10.0 mi ENE 6.9 mph - 0.00 in   Overcast
2:51 AM 57.9 °F 57.0 °F 97% 29.70 in 6.0 mi NE 8.1 mph - 0.05 in Rain Rain
3:43 AM 57.2 °F 57.2 °F 100% 29.66 in 2.5 mi ENE 4.6 mph - 0.20 in Rain Heavy Rain
3:51 AM 57.9 °F 57.0 °F 97% 29.65 in 6.0 mi Calm Calm - 0.22 in Rain Light Rain
4:03 AM 57.2 °F 57.2 °F 100% 29.67 in 1.8 mi SE 4.6 mph - 0.05 in Rain Heavy Rain
4:12 AM 57.2 °F 55.4 °F 94% 29.66 in 3.0 mi ENE 8.1 mph - 0.13 in Rain Light Rain
4:28 AM 57.2 °F 55.4 °F 94% 29.66 in 3.0 mi East 9.2 mph - 0.19 in Rain Rain
4:51 AM 57.0 °F 55.0 °F 93% 29.66 in 10.0 mi ESE 5.8 mph - 0.21 in Rain Light Rain
5:49 AM 55.4 °F 55.4 °F 100% 29.65 in 10.0 mi East 6.9 mph - 0.00 in Rain Light Rain
5:51 AM 55.9 °F 55.0 °F 97% 29.65 in 10.0 mi East 6.9 mph - 0.00 in Rain Light Rain
6:51 AM 55.9 °F 55.0 °F 97% 29.63 in 10.0 mi East 10.4 mph - 0.00 in Rain Light Rain
7:32 AM 55.4 °F 55.4 °F 100% 29.62 in 10.0 mi East 6.9 mph - 0.00 in   Overcast
7:51 AM 57.0 °F 55.9 °F 96% 29.62 in 9.0 mi East 4.6 mph - 0.00 in   Overcast
8:51 AM 57.9 °F 57.0 °F 97% 29.58 in 10.0 mi East 4.6 mph - N/A   Overcast
9:51 AM 60.1 °F 59.0 °F 96% 29.57 in 2.5 mi Calm Calm - 0.01 in Rain Light Rain
10:32 AM 60.8 °F 60.8 °F 100% 29.56 in 3.0 mi NNW 3.5 mph - 0.00 in   Overcast
10:51 AM 61.0 °F 60.1 °F 97% 29.55 in 6.0 mi Calm Calm - 0.00 in   Overcast
11:51 AM 63.0 °F 62.1 °F 97% 29.55 in 6.0 mi Calm Calm - N/A   Overcast
12:51 PM 63.0 °F 63.0 °F 100% 29.54 in 4.0 mi Calm Calm - N/A   Overcast
1:05 PM 62.6 °F 62.6 °F 100% 29.53 in 1.8 mi NW 3.5 mph - 0.00 in Rain Light Rain
1:15 PM 62.6 °F 62.6 °F 100% 29.53 in 1.2 mi Calm Calm - 0.02 in Rain Light Rain
1:31 PM 62.6 °F 62.6 °F 100% 29.53 in 0.5 mi Variable 3.5 mph - 0.19 in Fog , Rain Heavy Rain
1:38 PM 64.4 °F 64.4 °F 100% 29.53 in 1.8 mi Calm Calm - 0.21 in Rain Light Rain
1:40 PM 64.4 °F 64.4 °F 100% 29.54 in 3.0 mi Calm Calm - 0.21 in Rain Light Rain
1:51 PM 66.0 °F 64.9 °F 96% 29.53 in 10.0 mi NW 4.6 mph - 0.21 in Rain Light Rain
2:07 PM 66.2 °F 64.4 °F 94% 29.53 in 10.0 mi West 3.5 mph - N/A   Overcast
2:25 PM 68.0 °F 64.4 °F 88% 29.53 in 10.0 mi Calm Calm - N/A   Overcast
2:51 PM 68.0 °F 66.0 °F 93% 29.52 in 10.0 mi NW 5.8 mph - N/A   Overcast
3:30 PM 68.0 °F 66.2 °F 94% 29.51 in 10.0 mi NW 4.6 mph - N/A Thunderstorm Overcast
3:51 PM 68.0 °F 66.0 °F 93% 29.51 in 10.0 mi NNW 3.5 mph - N/A Thunderstorm Overcast
4:05 PM 69.8 °F 66.2 °F 88% 29.50 in 10.0 mi NNW 3.5 mph - N/A   Overcast
4:51 PM 73.0 °F 68.0 °F 84% 29.50 in 10.0 mi Calm Calm - N/A   Mostly Cloudy
5:36 PM 71.6 °F 68.0 °F 88% 29.49 in 10.0 mi Calm Calm - N/A   Scattered Clouds
5:51 PM 72.0 °F 69.1 °F 91% 29.49 in 10.0 mi ESE 4.6 mph - N/A   Mostly Cloudy
6:33 PM 73.4 °F 69.8 °F 88% 29.49 in 10.0 mi Calm Calm - N/A   Mostly Cloudy
6:51 PM 70.0 °F 68.0 °F 93% 29.49 in 10.0 mi NNE 6.9 mph - N/A   Overcast
7:08 PM 69.8 °F 68.0 °F 94% 29.50 in 10.0 mi West 10.4 mph - N/A   Overcast
7:28 PM 69.8 °F 69.8 °F 100% 29.50 in 10.0 mi SE 3.5 mph - N/A Thunderstorm Overcast
7:46 PM 68.0 °F 66.2 °F 94% 29.52 in 10.0 mi NW 12.7 mph 18.4 mph N/A Thunderstorm Overcast
7:51 PM 68.0 °F 64.9 °F 90% 29.52 in 10.0 mi NW 12.7 mph - N/A Thunderstorm Overcast
8:01 PM 66.2 °F 64.4 °F 94% 29.52 in 8.0 mi North 8.1 mph - 0.00 in Rain Light Rain
8:19 PM 66.2 °F 66.2 °F 100% 29.52 in 10.0 mi ENE 3.5 mph - 0.01 in   Overcast
8:51 PM 68.0 °F 66.9 °F 96% 29.52 in 10.0 mi Calm Calm - 0.01 in   Overcast
9:42 PM 66.2 °F 66.2 °F 100% 29.55 in 10.0 mi WNW 3.5 mph - N/A   Overcast
9:51 PM 66.0 °F 66.0 °F 100% 29.55 in 10.0 mi Calm Calm - N/A   Mostly Cloudy
10:02 PM 66.2 °F 66.2 °F 100% 29.55 in 10.0 mi Calm Calm - N/A   Mostly Cloudy
10:36 PM 66.2 °F 66.2 °F 100% 29.55 in 10.0 mi Calm Calm - N/A   Overcast
10:51 PM 66.0 °F 64.9 °F 96% 29.55 in 10.0 mi NNW 6.9 mph - N/A   Overcast
11:51 PM 66.0 °F 66.0 °F 100% 29.55 in 10.0 mi Calm Calm - N/A   Overcast